Regional Weather Roundup
Issued by NWS

Home | Current Version | Previous Version | Text Only | Print | Product List | Glossary Off
Versions: 1 2 3 4 5 6 7 8 9 10 11 12 13 14 15 16 17 18 19 20 21 22 23 24 25 26 27 28 29 30 31 32 33 34 35 36 37 38 39 40 41 42 43 44 45 46 47 48 49 50

000
ASUS45 KCYS 201610
RWRWY

WYOMING REGIONAL WEATHER ROUNDUP
NATIONAL WEATHER SERVICE CHEYENNE WY
900 AM MST SAT DEC 20 2014

NOTE:  "FAIR" INDICATES FEW OR NO CLOUDS BELOW 12,000 FEET
WITH NO SIGNIFICANT WEATHER AND/OR OBSTRUCTIONS TO VISIBILITY.

WYZ001-201700-
YELLOWSTONE NATIONAL PARK

CITY           SKY/WX    TMP DP  RH WIND       PRES   REMARKS
LK YELLOWSTONE   N/A     25  20  81 VRB3      29.99F
W YELLOWSTONE  NOT AVBL

$$
WYZ002>013-054>058-071-098>099-201700-
NORTHERN WYOMING

CITY           SKY/WX    TMP DP  RH WIND       PRES   REMARKS
JACKSON        CLOUDY    30  27  86 CALM      30.02S
CODY           FAIR      34  21  60 W5        29.92S WCI  30
GREYBULL       FAIR      13  10  88 CALM      29.99R
WORLAND        FAIR       7   3  84 N5        29.98R WCI  -2
SHERIDAN       FAIR      27  19  72 CALM      29.94R
BUFFALO        FAIR      35  20  54 NW8       29.94R WCI  29
GILLETTE       CLOUDY    31  24  75 CALM      29.93R
HULETT           N/A    N/A N/A N/A MISG        N/A
NEWCASTLE      FAIR      30  27  86 CALM      29.95S

$$
WYZ014>020-022>026-101>103-201700-
CENTRAL WYOMING

CITY           SKY/WX    TMP DP  RH WIND       PRES   REMARKS
BIG PINEY      FAIR      22  18  85 CALM      30.05S
PINEDALE       CLOUDY    23  23 100 CALM      30.05S
DUBOIS         NOT AVBL
LANDER         FAIR      18  12  77 NW3       29.97R
RIVERTON       FAIR      16  12  84 CALM      29.98R
CASPER         FAIR      31  23  72 SW20G31   29.98R WCI  19
DOUGLAS        FAIR      36  25  64 N7        29.97S WCI  30

$$
WYZ021-027>030-104>119-201700-
SOUTHERN WYOMING

CITY           SKY/WX    TMP DP  RH WIND       PRES   REMARKS
EVANSTON       CLOUDY    30  28  92 SW10      30.07R WCI  21
KEMMERER       CLOUDY    30  28  93 SW5       30.06R WCI  25
FORT BRIDGER   CLOUDY    32  30  90 W7        30.09S WCI  26
ROCK SPRINGS   CLOUDY    29  23  78 SW13      30.06R WCI  19
DIXON          CLOUDY    28  23  82 W6        30.14R WCI  21
RAWLINS        PTSUNNY   28  21  75 VRB7      30.04R WCI  21
SARATOGA       CLOUDY    30  23  74 SE6       30.07S WCI  24
LARAMIE        CLOUDY    30  20  66 SW12      30.00R WCI  20
CHEYENNE       PTSUNNY   34  19  54 CALM      30.02R
TORRINGTON     FAIR     N/A N/A N/A SE6       29.97R
PINE BLUFFS    CLOUDY    37  25  60 W8        30.01R WCI  31

$$



USA.gov is the U.S. government's official web portal to all federal, state and local government web resources and services.